Time,TemperatureF,DewpointF,PressureIn,WindDirection,WindDirectionDegrees,WindSpeedMPH,WindSpeedGustMPH,Humidity,HourlyPrecipIn,Conditions,Clouds,dailyrainin,SoftwareType,DateUTC
2013-06-19 00:01:00,57.0,53.8,29.67,West,267,3.0,9.0,89,0.00,,,0.07,VWS V14.01,2013-06-19 06:01:00,
2013-06-19 00:06:00,57.1,53.9,29.67,West,267,4.0,7.0,89,0.00,,,0.00,VPLive 1.2.5.27,2013-06-19 06:06:00,
2013-06-19 00:11:00,56.9,53.7,29.67,West,263,4.0,7.0,89,0.00,,,0.00,VWS V14.01,2013-06-19 06:11:00,
2013-06-19 00:16:00,57.1,53.9,29.67,SSW,204,1.0,7.0,89,0.00,,,0.00,VWS V14.01,2013-06-19 06:16:00,
2013-06-19 00:21:00,57.2,54.0,29.67,SSW,205,2.0,7.0,89,0.00,,,0.00,VWS V14.01,2013-06-19 06:21:00,
2013-06-19 00:26:00,56.8,53.6,29.66,West,275,5.0,9.0,89,0.00,,,0.00,VWS V14.01,2013-06-19 06:26:00,
2013-06-19 00:30:00,56.9,53.7,29.66,West,265,7.0,9.0,89,0.00,,,0.00,VWS V14.01,2013-06-19 06:30:00,
2013-06-19 00:35:00,57.0,53.8,29.65,SSE,166,7.0,7.0,89,0.01,,,0.01,VWS V14.01,2013-06-19 06:35:00,
2013-06-19 00:40:00,57.1,53.9,29.65,NE,44,0.0,7.0,89,0.01,,,0.01,VWS V14.01,2013-06-19 06:40:00,
2013-06-19 00:45:00,56.9,53.7,29.63,WNW,294,2.0,7.0,89,0.01,,,0.01,VWS V14.01,2013-06-19 06:45:00,
2013-06-19 00:50:00,56.7,53.5,29.63,WNW,294,2.0,7.0,89,0.01,,,0.01,VWS V14.01,2013-06-19 06:50:00,
2013-06-19 00:55:00,56.5,53.3,29.63,South,188,4.0,7.0,89,0.01,,,0.01,VWS V14.01,2013-06-19 06:55:00,
2013-06-19 01:00:00,56.2,53.0,29.63,West,268,9.0,10.0,89,0.01,,,0.01,VWS V14.01,2013-06-19 07:00:00,
2013-06-19 01:05:00,56.1,52.9,29.63,West,271,6.0,8.0,89,0.01,,,0.01,VWS V14.01,2013-06-19 07:05:00,
2013-06-19 01:10:00,56.0,52.8,29.62,West,267,6.0,8.0,89,0.01,,,0.01,VWS V14.01,2013-06-19 07:10:00,
2013-06-19 01:15:00,55.7,52.2,29.62,West,267,4.0,8.0,88,0.01,,,0.01,VWS V14.01,2013-06-19 07:15:00,
2013-06-19 01:20:00,55.7,52.2,29.62,SW,221,8.0,11.0,88,0.01,,,0.01,VWS V14.01,2013-06-19 07:20:00,
2013-06-19 01:25:00,56.0,52.8,29.62,SSW,197,6.0,14.0,89,0.01,,,0.01,VWS V14.01,2013-06-19 07:25:00,
2013-06-19 01:30:00,56.3,53.1,29.62,SSW,202,12.0,14.0,89,0.01,,,0.01,VWS V14.01,2013-06-19 07:30:00,
2013-06-19 01:35:00,56.4,53.2,29.62,SSW,206,9.0,12.0,89,0.00,,,0.01,VWS V14.01,2013-06-19 07:35:00,
2013-06-19 01:40:00,56.4,53.2,29.62,SSW,202,7.0,12.0,89,0.00,,,0.01,VWS V14.01,2013-06-19 07:40:00,
2013-06-19 01:45:00,56.2,53.0,29.62,SSW,195,7.0,12.0,89,0.00,,,0.01,VWS V14.01,2013-06-19 07:45:00,
2013-06-19 01:50:00,56.0,52.8,29.61,SSW,197,2.0,12.0,89,0.00,,,0.01,VWS V14.01,2013-06-19 07:50:00,
2013-06-19 01:55:00,55.8,52.6,29.61,SSW,197,2.0,12.0,89,0.00,,,0.01,VWS V14.01,2013-06-19 07:55:00,
2013-06-19 02:00:00,55.2,52.0,29.61,West,275,5.0,12.0,89,0.00,,,0.01,VWS V14.01,2013-06-19 08:00:00,
2013-06-19 02:05:00,54.6,51.4,29.61,WSW,255,6.0,6.0,89,0.00,,,0.01,VWS V14.01,2013-06-19 08:05:00,
2013-06-19 02:10:00,54.4,51.2,29.61,WSW,255,4.0,6.0,89,0.00,,,0.01,VWS V14.01,2013-06-19 08:10:00,
2013-06-19 02:15:00,54.4,51.2,29.61,WSW,255,0.0,6.0,89,0.00,,,0.01,VWS V14.01,2013-06-19 08:15:00,
2013-06-19 02:20:00,54.2,51.0,29.60,WSW,254,3.0,6.0,89,0.00,,,0.01,VWS V14.01,2013-06-19 08:20:00,
2013-06-19 02:25:00,54.0,50.8,29.61,WSW,254,3.0,6.0,89,0.00,,,0.01,VWS V14.01,2013-06-19 08:25:00,
2013-06-19 02:30:00,54.2,51.0,29.60,West,279,5.0,7.0,89,0.00,,,0.01,VWS V14.01,2013-06-19 08:30:00,
2013-06-19 02:35:00,53.8,50.6,29.60,West,279,3.0,7.0,89,0.00,,,0.01,VWS V14.01,2013-06-19 08:35:00,
2013-06-19 02:40:00,53.6,50.4,29.60,West,273,4.0,8.0,89,0.00,,,0.01,VWS V14.01,2013-06-19 08:40:00,
2013-06-19 02:45:00,53.5,50.3,29.60,West,269,5.0,8.0,89,0.00,,,0.01,VWS V14.01,2013-06-19 08:45:00,
2013-06-19 02:50:00,53.1,50.0,29.59,West,269,5.0,8.0,89,0.00,,,0.01,VWS V14.01,2013-06-19 08:50:00,
2013-06-19 02:55:00,52.9,49.8,29.59,West,281,3.0,8.0,89,0.00,,,0.01,VWS V14.01,2013-06-19 08:55:00,
2013-06-19 03:00:00,52.9,49.8,29.58,West,277,5.0,8.0,89,0.00,,,0.01,VWS V14.01,2013-06-19 09:00:00,
2013-06-19 03:05:00,52.9,49.8,29.58,West,277,3.0,4.0,89,0.00,,,0.01,VWS V14.01,2013-06-19 09:05:00,
2013-06-19 03:10:00,53.0,49.8,29.59,West,279,7.0,10.0,89,0.00,,,0.01,VWS V14.01,2013-06-19 09:10:00,
2013-06-19 03:15:00,53.9,50.7,29.58,West,271,6.0,10.0,89,0.00,,,0.01,VWS V14.01,2013-06-19 09:15:00,
2013-06-19 03:20:00,53.7,50.5,29.59,West,271,0.0,10.0,89,0.00,,,0.01,VWS V14.01,2013-06-19 09:20:00,
2013-06-19 03:25:00,53.5,50.3,29.58,West,271,0.0,10.0,89,0.00,,,0.01,VWS V14.01,2013-06-19 09:25:00,
2013-06-19 03:30:00,53.3,50.2,29.58,West,271,0.0,10.0,89,0.00,,,0.01,VWS V14.01,2013-06-19 09:30:00,
2013-06-19 03:35:00,53.0,49.8,29.58,West,271,0.0,0.0,89,0.00,,,0.01,VWS V14.01,2013-06-19 09:35:00,
2013-06-19 03:40:00,52.7,49.8,29.58,West,271,0.0,2.0,90,0.00,,,0.01,VWS V14.01,2013-06-19 09:40:00,
2013-06-19 03:45:00,52.6,49.5,29.58,West,271,0.0,2.0,89,0.00,,,0.01,VWS V14.01,2013-06-19 09:45:00,
2013-06-19 03:50:00,52.6,49.5,29.58,West,271,0.0,2.0,89,0.00,,,0.01,VWS V14.01,2013-06-19 09:50:00,
2013-06-19 03:55:00,52.4,49.3,29.58,West,271,0.0,2.0,89,0.00,,,0.01,VWS V14.01,2013-06-19 09:55:00,
2013-06-19 04:00:00,52.4,49.3,29.59,WSW,250,7.0,7.0,89,0.00,,,0.01,VWS V14.01,2013-06-19 10:00:00,
2013-06-19 04:05:00,52.8,49.7,29.58,WSW,240,4.0,9.0,89,0.01,,,0.02,VWS V14.01,2013-06-19 10:05:00,
2013-06-19 04:10:00,53.5,50.3,29.59,WSW,244,7.0,10.0,89,0.01,,,0.02,VWS V14.01,2013-06-19 10:10:00,
2013-06-19 04:15:00,54.4,51.2,29.59,SW,231,11.0,15.0,89,0.01,,,0.02,VWS V14.01,2013-06-19 10:15:00,
2013-06-19 04:20:00,54.8,51.6,29.59,SW,223,8.0,15.0,89,0.01,,,0.02,VWS V14.01,2013-06-19 10:20:00,
2013-06-19 04:25:00,55.4,51.9,29.59,SW,217,14.0,18.0,88,0.01,,,0.02,VWS V14.01,2013-06-19 10:25:00,
2013-06-19 04:30:00,55.4,51.6,29.60,SSW,194,11.0,19.0,87,0.01,,,0.02,VWS V14.01,2013-06-19 10:30:00,
2013-06-19 04:35:00,55.7,51.9,29.59,SSW,209,13.0,18.0,87,0.01,,,0.02,VWS V14.01,2013-06-19 10:35:00,
2013-06-19 04:40:00,56.0,51.9,29.59,SW,235,7.0,18.0,86,0.01,,,0.02,VWS V14.01,2013-06-19 10:40:00,
2013-06-19 04:45:00,56.2,51.8,29.60,SW,231,5.0,18.0,85,0.01,,,0.02,VWS V14.01,2013-06-19 10:45:00,
2013-06-19 04:50:00,56.6,51.8,29.60,WSW,238,8.0,18.0,84,0.01,,,0.02,VWS V14.01,2013-06-19 10:50:00,
2013-06-19 04:55:00,56.6,51.8,29.60,SSW,210,11.0,18.0,84,0.01,,,0.02,VWS V14.01,2013-06-19 10:55:00,
2013-06-19 05:00:00,56.7,51.9,29.60,WSW,249,4.0,18.0,84,0.01,,,0.02,VWS V14.01,2013-06-19 11:00:00,
2013-06-19 05:05:00,56.5,51.7,29.60,WSW,249,5.0,10.0,84,0.01,,,0.02,VWS V14.01,2013-06-19 11:05:00,
2013-06-19 05:10:00,56.4,52.0,29.60,SW,232,5.0,10.0,85,0.01,,,0.02,VWS V14.01,2013-06-19 11:10:00,
2013-06-19 05:15:00,56.2,52.1,29.60,SW,235,3.0,10.0,86,0.01,,,0.02,VWS V14.01,2013-06-19 11:15:00,
2013-06-19 05:20:00,55.8,52.0,29.59,SW,230,10.0,10.0,87,0.01,,,0.02,VWS V14.01,2013-06-19 11:20:00,
2013-06-19 05:25:00,56.3,52.2,29.59,SW,215,4.0,10.0,86,0.01,,,0.02,VWS V14.01,2013-06-19 11:25:00,
2013-06-19 05:30:00,56.7,52.2,29.59,SSW,208,5.0,10.0,85,0.01,,,0.02,VWS V14.01,2013-06-19 11:30:00,
2013-06-19 05:35:00,56.9,52.4,29.59,SSW,202,4.0,9.0,85,0.00,,,0.02,VPLive 1.2.5.27,2013-06-19 11:35:00,
2013-06-19 05:40:00,57.1,52.3,29.59,SSW,204,6.0,11.0,84,0.00,,,0.02,VWS V14.01,2013-06-19 11:40:00,
2013-06-19 05:45:00,57.3,52.2,29.59,SW,219,6.0,11.0,83,0.00,,,0.02,VWS V14.01,2013-06-19 11:45:00,
2013-06-19 05:50:00,57.4,52.3,29.58,SW,221,10.0,11.0,83,0.00,,,0.02,VWS V14.01,2013-06-19 11:50:00,
2013-06-19 05:55:00,57.4,52.0,29.59,SSW,213,6.0,11.0,82,0.00,,,0.02,VWS V14.01,2013-06-19 11:55:00,
2013-06-19 06:00:00,57.3,51.9,29.59,SW,217,5.0,11.0,82,0.00,,,0.02,VWS V14.01,2013-06-19 12:00:00,
2013-06-19 06:05:00,56.9,52.1,29.59,SW,234,5.0,7.0,84,0.00,,,0.02,VWS V14.01,2013-06-19 12:05:00,
2013-06-19 06:10:00,55.8,51.7,29.58,WSW,247,5.0,7.0,86,0.00,,,0.02,VWS V14.01,2013-06-19 12:10:00,
2013-06-19 06:15:00,55.9,51.8,29.58,SW,232,5.0,7.0,86,0.00,,,0.02,VWS V14.01,2013-06-19 12:15:00,
2013-06-19 06:20:00,56.0,51.6,29.58,SW,229,5.0,7.0,85,0.00,,,0.02,VWS V14.01,2013-06-19 12:20:00,
2013-06-19 06:25:00,56.2,51.4,29.58,SW,223,3.0,8.0,84,0.00,,,0.02,VWS V14.01,2013-06-19 12:25:00,
2013-06-19 06:30:00,56.2,51.4,29.58,SW,219,4.0,8.0,84,0.00,,,0.02,VWS V14.01,2013-06-19 12:30:00,
2013-06-19 06:35:00,56.0,51.6,29.58,SW,220,0.0,1.0,85,0.00,,,0.02,VWS V14.01,2013-06-19 12:35:00,
2013-06-19 06:40:00,55.5,51.4,29.58,SW,220,3.0,5.0,86,0.00,,,0.02,VPLive 1.2.5.27,2013-06-19 12:40:00,
2013-06-19 06:45:00,55.0,51.5,29.58,WSW,256,5.0,7.0,88,0.00,,,0.02,VWS V14.01,2013-06-19 12:45:00,
2013-06-19 06:50:00,54.8,51.3,29.58,SW,227,5.0,8.0,88,0.00,,,0.02,VWS V14.01,2013-06-19 12:50:00,
2013-06-19 06:55:00,55.6,51.5,29.58,WSW,249,6.0,8.0,86,0.00,,,0.02,VWS V14.01,2013-06-19 12:55:00,
2013-06-19 07:00:00,56.3,51.9,29.58,SW,218,8.0,8.0,85,0.00,,,0.02,VWS V14.01,2013-06-19 13:00:00,
2013-06-19 07:05:00,56.7,51.6,29.58,WSW,244,6.0,6.0,83,0.00,,,0.02,VWS V14.01,2013-06-19 13:05:00,
2013-06-19 07:10:00,56.9,51.8,29.58,SW,220,6.0,9.0,83,0.00,,,0.02,VWS V14.01,2013-06-19 13:10:00,
2013-06-19 07:15:00,57.1,51.7,29.58,SW,232,10.0,12.0,82,0.00,,,0.02,VWS V14.01,2013-06-19 13:15:00,
2013-06-19 07:20:00,57.0,51.6,29.58,SSW,210,10.0,12.0,82,0.00,,,0.02,VWS V14.01,2013-06-19 13:20:00,
2013-06-19 07:25:00,57.1,51.7,29.58,SW,214,12.0,13.0,82,0.00,,,0.02,VWS V14.01,2013-06-19 13:25:00,
2013-06-19 07:30:00,57.1,52.0,29.58,SSW,211,9.0,13.0,83,0.00,,,0.02,VWS V14.01,2013-06-19 13:30:00,
2013-06-19 07:35:00,57.1,51.7,29.58,SW,215,10.0,12.0,82,0.00,,,0.02,VWS V14.01,2013-06-19 13:35:00,
2013-06-19 07:40:00,57.1,51.7,29.58,SW,224,7.0,13.0,82,0.00,,,0.02,VWS V14.01,2013-06-19 13:40:00,
2013-06-19 07:45:00,57.1,51.7,29.58,SSW,213,8.0,13.0,82,0.00,,,0.02,VWS V14.01,2013-06-19 13:45:00,
2013-06-19 07:50:00,57.1,51.7,29.58,SW,219,9.0,13.0,82,0.00,,,0.02,VWS V14.01,2013-06-19 13:50:00,
2013-06-19 07:55:00,57.0,51.6,29.58,SW,226,8.0,14.0,82,0.00,,,0.02,VWS V14.01,2013-06-19 13:55:00,
2013-06-19 08:00:00,57.0,51.6,29.58,SW,215,9.0,14.0,82,0.00,,,0.02,VWS V14.01,2013-06-19 14:00:00,
2013-06-19 08:05:00,56.9,51.5,29.58,South,189,8.0,14.0,82,0.00,,,0.02,VWS V14.01,2013-06-19 14:05:00,
2013-06-19 08:10:00,56.9,51.8,29.58,South,186,12.0,14.0,83,0.00,,,0.02,VWS V14.01,2013-06-19 14:10:00,
2013-06-19 08:15:00,57.0,51.6,29.58,SSW,209,11.0,16.0,82,0.00,,,0.02,VWS V14.01,2013-06-19 14:15:00,
2013-06-19 08:20:00,57.1,51.7,29.59,SW,220,12.0,16.0,82,0.00,,,0.02,VWS V14.01,2013-06-19 14:20:00,
2013-06-19 08:25:00,57.0,51.6,29.59,SW,219,9.0,16.0,82,0.00,,,0.02,VWS V14.01,2013-06-19 14:25:00,
2013-06-19 08:30:00,57.0,51.6,29.59,SSW,196,11.0,16.0,82,0.00,,,0.02,VWS V14.01,2013-06-19 14:30:00,
2013-06-19 08:35:00,56.9,51.8,29.59,SSW,207,14.0,15.0,83,0.00,,,0.02,VWS V14.01,2013-06-19 14:35:00,
2013-06-19 08:40:00,56.8,51.7,29.59,SSW,209,10.0,15.0,83,0.00,,,0.02,VWS V14.01,2013-06-19 14:40:00,
2013-06-19 08:45:00,56.8,51.7,29.59,SW,217,10.0,15.0,83,0.00,,,0.02,VWS V14.01,2013-06-19 14:45:00,
2013-06-19 08:50:00,56.8,51.7,29.59,SSW,202,13.0,15.0,83,0.00,,,0.02,VWS V14.01,2013-06-19 14:50:00,
2013-06-19 08:55:00,56.7,51.6,29.59,SSW,200,10.0,15.0,83,0.00,,,0.02,VWS V14.01,2013-06-19 14:55:00,
2013-06-19 09:00:00,56.7,51.6,29.59,SW,224,9.0,15.0,83,0.00,,,0.02,VWS V14.01,2013-06-19 15:00:00,
2013-06-19 09:05:00,56.7,51.6,29.59,SSW,210,7.0,13.0,83,0.00,,,0.02,VWS V14.01,2013-06-19 15:05:00,
2013-06-19 09:10:00,56.6,51.5,29.59,SW,219,13.0,14.0,83,0.00,,,0.02,VWS V14.01,2013-06-19 15:10:00,
2013-06-19 09:15:00,56.6,51.2,29.59,SSW,211,8.0,14.0,82,0.00,,,0.02,VWS V14.01,2013-06-19 15:15:00,
2013-06-19 09:20:00,56.6,51.2,29.59,SW,218,11.0,14.0,82,0.00,,,0.02,VWS V14.01,2013-06-19 15:20:00,
2013-06-19 09:25:00,56.6,51.2,29.59,SW,221,11.0,14.0,82,0.00,,,0.02,VWS V14.01,2013-06-19 15:25:00,
2013-06-19 09:30:00,56.6,51.2,29.59,SSW,211,7.0,14.0,82,0.00,,,0.02,VWS V14.01,2013-06-19 15:30:00,
2013-06-19 09:35:00,56.5,51.1,29.59,SSW,202,7.0,12.0,82,0.00,,,0.02,VWS V14.01,2013-06-19 15:35:00,
2013-06-19 09:40:00,56.5,51.1,29.59,SW,214,8.0,13.0,82,0.00,,,0.02,VWS V14.01,2013-06-19 15:40:00,
2013-06-19 09:45:00,56.4,51.0,29.59,SSW,209,11.0,13.0,82,0.00,,,0.02,VWS V14.01,2013-06-19 15:45:00,
2013-06-19 09:50:00,56.4,51.0,29.59,SSW,203,10.0,13.0,82,0.00,,,0.02,VWS V14.01,2013-06-19 15:50:00,
2013-06-19 09:55:00,56.3,50.9,29.59,SSW,196,12.0,13.0,82,0.00,,,0.02,VWS V14.01,2013-06-19 15:55:00,
2013-06-19 10:00:00,56.3,50.9,29.59,SW,225,10.0,13.0,82,0.00,,,0.02,VWS V14.01,2013-06-19 16:00:00,
2013-06-19 10:05:00,56.2,50.5,29.59,SSW,210,10.0,14.0,81,0.00,,,0.02,VWS V14.01,2013-06-19 16:05:00,
2013-06-19 10:10:00,56.2,50.5,29.59,SSW,200,8.0,15.0,81,0.00,,,0.02,VWS V14.01,2013-06-19 16:10:00,
2013-06-19 10:15:00,56.2,50.4,29.59,SW,215,10.0,13.0,81,0.00,,,0.02,VPLive 1.2.5.27,2013-06-19 16:15:00,
2013-06-19 10:20:00,56.1,50.7,29.59,SSW,205,11.0,15.0,82,0.00,,,0.02,VWS V14.01,2013-06-19 16:20:00,
2013-06-19 10:25:00,56.0,50.6,29.58,SSW,204,6.0,15.0,82,0.00,,,0.02,VWS V14.01,2013-06-19 16:25:00,
2013-06-19 10:30:00,56.0,50.6,29.58,SW,217,11.0,15.0,82,0.00,,,0.02,VWS V14.01,2013-06-19 16:30:00,
2013-06-19 10:35:00,56.0,50.6,29.58,SW,214,6.0,11.0,82,0.00,,,0.02,VWS V14.01,2013-06-19 16:35:00,
2013-06-19 10:40:00,56.0,50.6,29.58,SSW,213,7.0,13.0,82,0.00,,,0.02,VWS V14.01,2013-06-19 16:40:00,
2013-06-19 10:45:00,55.9,50.5,29.58,SW,232,8.0,13.0,82,0.00,,,0.02,VWS V14.01,2013-06-19 16:45:00,
2013-06-19 10:50:00,55.8,50.4,29.58,SW,223,10.0,14.0,82,0.00,,,0.02,VWS V14.01,2013-06-19 16:50:00,
2013-06-19 10:55:00,55.9,50.2,29.58,SSW,213,14.0,14.0,81,0.00,,,0.02,VWS V14.01,2013-06-19 16:55:00,
2013-06-19 11:00:00,56.0,50.3,29.58,SW,229,10.0,14.0,81,0.00,,,0.02,VWS V14.01,2013-06-19 17:00:00,
2013-06-19 11:05:00,56.0,50.3,29.58,West,263,10.0,15.0,81,0.00,,,0.02,VWS V14.01,2013-06-19 17:05:00,
2013-06-19 11:10:00,56.0,50.3,29.58,SW,214,6.0,15.0,81,0.00,,,0.02,VWS V14.01,2013-06-19 17:10:00,
2013-06-19 11:15:00,56.0,49.9,29.58,WSW,252,9.0,15.0,80,0.00,,,0.02,VWS V14.01,2013-06-19 17:15:00,
2013-06-19 11:20:00,56.1,50.0,29.58,SW,223,7.0,16.0,80,0.00,,,0.02,VWS V14.01,2013-06-19 17:20:00,
2013-06-19 11:25:00,56.2,50.1,29.58,SW,231,14.0,16.0,80,0.00,,,0.02,VWS V14.01,2013-06-19 17:25:00,
2013-06-19 11:30:00,56.0,49.6,29.58,West,261,10.0,19.0,79,0.00,,,0.02,VWS V14.01,2013-06-19 17:30:00,
2013-06-19 11:35:00,55.8,49.4,29.58,WSW,246,11.0,17.0,79,0.00,,,0.02,VWS V14.01,2013-06-19 17:35:00,
2013-06-19 11:40:00,55.6,49.2,29.58,WSW,240,13.0,17.0,79,0.00,,,0.02,VWS V14.01,2013-06-19 17:40:00,
2013-06-19 11:45:00,55.5,49.1,29.59,WSW,238,8.0,17.0,79,0.00,,,0.02,VWS V14.01,2013-06-19 17:45:00,
2013-06-19 11:50:00,55.3,48.9,29.59,WSW,244,9.0,17.0,79,0.00,,,0.02,VWS V14.01,2013-06-19 17:50:00,
2013-06-19 11:55:00,55.1,48.7,29.59,SW,232,12.0,19.0,79,0.00,,,0.02,VWS V14.01,2013-06-19 17:55:00,
2013-06-19 12:00:00,54.9,48.5,29.59,SW,219,12.0,19.0,79,0.00,,,0.02,VWS V14.01,2013-06-19 18:00:00,
2013-06-19 12:05:00,54.8,48.4,29.60,WSW,238,9.0,16.0,79,0.00,,,0.02,VWS V14.01,2013-06-19 18:05:00,
2013-06-19 12:10:00,54.5,48.1,29.60,WSW,250,11.0,19.0,79,0.00,,,0.02,VWS V14.01,2013-06-19 18:10:00,
2013-06-19 12:15:00,54.4,48.0,29.60,SW,216,15.0,19.0,79,0.00,,,0.02,VWS V14.01,2013-06-19 18:15:00,
2013-06-19 12:20:00,54.2,47.8,29.61,WSW,242,13.0,19.0,79,0.00,,,0.02,VWS V14.01,2013-06-19 18:20:00,
2013-06-19 12:25:00,53.9,47.5,29.61,WSW,242,12.0,19.0,79,0.00,,,0.02,VWS V14.01,2013-06-19 18:25:00,
2013-06-19 12:30:00,53.7,47.3,29.61,WSW,257,19.0,19.0,79,0.00,,,0.02,VWS V14.01,2013-06-19 18:30:00,
2013-06-19 12:35:00,53.6,47.3,29.61,WSW,246,13.0,17.0,79,0.00,,,0.02,VWS V14.01,2013-06-19 18:35:00,
2013-06-19 12:40:00,53.6,47.3,29.61,SW,236,12.0,20.0,79,0.00,,,0.02,VWS V14.01,2013-06-19 18:40:00,
2013-06-19 12:45:00,53.5,46.8,29.61,SW,236,19.0,21.0,78,0.00,,,0.02,VWS V14.01,2013-06-19 18:45:00,
2013-06-19 12:50:00,53.3,46.6,29.61,SW,229,22.0,24.0,78,0.00,,,0.02,VWS V14.01,2013-06-19 18:50:00,
2013-06-19 12:55:00,53.2,46.5,29.62,WSW,248,12.0,24.0,78,0.00,,,0.02,VWS V14.01,2013-06-19 18:55:00,
2013-06-19 13:00:00,53.1,46.4,29.62,WSW,240,19.0,24.0,78,0.00,,,0.02,VWS V14.01,2013-06-19 19:00:00,
2013-06-19 13:05:00,53.0,46.3,29.63,WSW,250,10.0,19.0,78,0.00,,,0.02,VWS V14.01,2013-06-19 19:05:00,
2013-06-19 13:10:00,53.0,46.3,29.62,SW,221,19.0,23.0,78,0.00,,,0.02,VWS V14.01,2013-06-19 19:10:00,
2013-06-19 13:15:00,53.0,46.0,29.62,WSW,256,16.0,23.0,77,0.00,,,0.02,VWS V14.01,2013-06-19 19:15:00,
2013-06-19 13:20:00,53.0,46.0,29.63,SW,229,11.0,23.0,77,0.00,,,0.02,VWS V14.01,2013-06-19 19:20:00,
2013-06-19 13:25:00,53.0,46.0,29.63,WSW,251,12.0,23.0,77,0.00,,,0.02,VWS V14.01,2013-06-19 19:25:00,
2013-06-19 13:30:00,53.0,46.0,29.64,WSW,237,15.0,23.0,77,0.00,,,0.02,VWS V14.01,2013-06-19 19:30:00,
2013-06-19 13:35:00,52.8,45.8,29.64,SW,217,12.0,21.0,77,0.00,,,0.02,VWS V14.01,2013-06-19 19:35:00,
2013-06-19 13:40:00,52.8,45.8,29.64,WSW,248,12.0,21.0,77,0.00,,,0.02,VWS V14.01,2013-06-19 19:40:00,
2013-06-19 13:45:00,52.7,45.7,29.65,West,281,13.0,21.0,77,0.00,,,0.02,VPLive 1.2.5.27,2013-06-19 19:45:00,
2013-06-19 13:50:00,52.6,45.6,29.66,West,274,17.0,24.0,77,0.00,,,0.02,VWS V14.01,2013-06-19 19:50:00,
2013-06-19 13:55:00,52.4,45.8,29.66,WSW,246,20.0,24.0,78,0.00,,,0.02,VWS V14.01,2013-06-19 19:55:00,
2013-06-19 14:00:00,52.3,46.0,29.66,SW,230,11.0,24.0,79,0.00,,,0.02,VWS V14.01,2013-06-19 20:00:00,
2013-06-19 14:05:00,51.9,45.9,29.66,SW,229,15.0,20.0,80,0.00,,,0.02,VWS V14.01,2013-06-19 20:05:00,
2013-06-19 14:10:00,51.2,45.9,29.66,SW,225,14.0,20.0,82,0.02,,,0.04,VWS V14.01,2013-06-19 20:10:00,
2013-06-19 14:15:00,50.8,46.2,29.67,SSW,211,14.0,24.0,84,0.02,,,0.04,VWS V14.01,2013-06-19 20:15:00,
2013-06-19 14:20:00,50.5,46.2,29.67,SW,223,15.0,24.0,85,0.02,,,0.04,VWS V14.01,2013-06-19 20:20:00,
2013-06-19 14:25:00,50.0,46.0,29.68,WSW,242,10.0,24.0,86,0.09,,,0.11,VWS V14.01,2013-06-19 20:25:00,
2013-06-19 14:30:00,49.9,46.2,29.68,WSW,257,11.0,24.0,87,0.12,,,0.14,VWS V14.01,2013-06-19 20:30:00,
2013-06-19 14:35:00,49.7,46.3,29.68,West,260,11.0,15.0,88,0.14,,,0.16,VWS V14.01,2013-06-19 20:35:00,
2013-06-19 14:40:00,49.8,46.4,29.67,WSW,237,12.0,20.0,88,0.16,,,0.18,VWS V14.01,2013-06-19 20:40:00,
2013-06-19 14:45:00,49.8,46.4,29.67,WSW,242,11.0,20.0,88,0.16,,,0.18,VWS V14.01,2013-06-19 20:45:00,
2013-06-19 14:50:00,50.0,46.6,29.68,SW,228,11.0,20.0,88,0.16,,,0.18,VWS V14.01,2013-06-19 20:50:00,
2013-06-19 14:55:00,50.0,46.6,29.69,SW,236,9.0,20.0,88,0.16,,,0.18,VWS V14.01,2013-06-19 20:55:00,
2013-06-19 15:00:00,50.2,46.5,29.68,WSW,244,11.0,20.0,87,0.16,,,0.18,VWS V14.01,2013-06-19 21:00:00,
2013-06-19 15:05:00,50.3,46.6,29.68,SSW,194,13.0,16.0,87,0.16,,,0.18,VWS V14.01,2013-06-19 21:05:00,
2013-06-19 15:10:00,50.4,46.4,29.69,SW,225,12.0,17.0,86,0.16,,,0.18,VWS V14.01,2013-06-19 21:10:00,
2013-06-19 15:15:00,50.4,46.4,29.70,SW,228,12.0,18.0,86,0.16,,,0.18,VWS V14.01,2013-06-19 21:15:00,
2013-06-19 15:20:00,50.6,46.3,29.70,SW,215,9.0,18.0,85,0.16,,,0.18,VWS V14.01,2013-06-19 21:20:00,
2013-06-19 15:25:00,50.8,46.2,29.71,SW,225,5.0,18.0,84,0.16,,,0.18,VWS V14.01,2013-06-19 21:25:00,
2013-06-19 15:30:00,50.8,46.2,29.70,SW,234,13.0,18.0,84,0.16,,,0.18,VWS V14.01,2013-06-19 21:30:00,
2013-06-19 15:35:00,50.6,46.3,29.71,SSW,202,12.0,13.0,85,0.04,,,0.18,VWS V14.01,2013-06-19 21:35:00,
2013-06-19 15:40:00,50.4,46.1,29.72,SW,229,10.0,14.0,85,0.04,,,0.18,VWS V14.01,2013-06-19 21:40:00,
2013-06-19 15:45:00,50.4,46.1,29.71,SW,219,7.0,14.0,85,0.04,,,0.18,VWS V14.01,2013-06-19 21:45:00,
2013-06-19 15:50:00,50.2,46.2,29.72,WSW,237,8.0,14.0,86,0.05,,,0.19,VWS V14.01,2013-06-19 21:50:00,
2013-06-19 15:55:00,50.2,45.9,29.72,SW,225,10.0,16.0,85,0.05,,,0.19,VWS V14.01,2013-06-19 21:55:00,
2013-06-19 16:00:00,50.2,46.2,29.72,SSW,202,7.0,16.0,86,0.06,,,0.20,VWS V14.01,2013-06-19 22:00:00,
2013-06-19 16:05:00,50.2,46.2,29.73,SSW,210,9.0,14.0,86,0.02,,,0.20,VWS V14.01,2013-06-19 22:05:00,
2013-06-19 16:10:00,50.4,46.1,29.72,WSW,237,6.0,12.0,85,0.02,,,0.20,VPLive 1.2.5.27,2013-06-19 22:10:00,
2013-06-19 16:15:00,50.5,46.5,29.72,SW,225,5.0,14.0,86,0.02,,,0.20,VWS V14.01,2013-06-19 22:15:00,
2013-06-19 16:20:00,50.6,46.9,29.72,WSW,237,7.0,14.0,87,0.02,,,0.20,VWS V14.01,2013-06-19 22:20:00,
2013-06-19 16:25:00,50.7,46.4,29.74,SW,234,7.0,14.0,85,0.02,,,0.20,VWS V14.01,2013-06-19 22:25:00,
2013-06-19 16:30:00,50.8,46.5,29.74,SW,232,9.0,14.0,85,0.02,,,0.20,VWS V14.01,2013-06-19 22:30:00,
2013-06-19 16:35:00,50.7,46.4,29.76,WSW,250,12.0,13.0,85,0.02,,,0.20,VWS V14.01,2013-06-19 22:35:00,
2013-06-19 16:40:00,50.8,45.8,29.75,SW,217,8.0,14.0,83,0.02,,,0.20,VWS V14.01,2013-06-19 22:40:00,
2013-06-19 16:45:00,50.8,46.5,29.74,West,271,6.0,14.0,85,0.02,,,0.20,VWS V14.01,2013-06-19 22:45:00,
2013-06-19 16:50:00,50.6,46.3,29.75,WSW,257,3.0,14.0,85,0.02,,,0.20,VWS V14.01,2013-06-19 22:50:00,
2013-06-19 16:55:00,50.4,46.7,29.75,WSW,257,3.0,14.0,87,0.02,,,0.20,VWS V14.01,2013-06-19 22:55:00,
2013-06-19 17:00:00,50.4,46.7,29.76,WSW,249,7.0,14.0,87,0.03,,,0.21,VWS V14.01,2013-06-19 23:00:00,
2013-06-19 17:05:00,50.4,46.7,29.76,SW,224,6.0,11.0,87,0.02,,,0.22,VWS V14.01,2013-06-19 23:05:00,
2013-06-19 17:10:00,50.7,47.0,29.75,SW,232,5.0,11.0,87,0.02,,,0.22,VWS V14.01,2013-06-19 23:10:00,
2013-06-19 17:15:00,51.2,47.8,29.75,SW,232,2.0,11.0,88,0.02,,,0.22,VWS V14.01,2013-06-19 23:15:00,
2013-06-19 17:20:00,51.7,48.6,29.74,SW,232,4.0,11.0,89,0.02,,,0.22,VWS V14.01,2013-06-19 23:20:00,
2013-06-19 17:25:00,51.9,47.8,29.75,SW,232,7.0,11.0,86,0.02,,,0.22,VWS V14.01,2013-06-19 23:25:00,
2013-06-19 17:30:00,52.3,48.9,29.75,SW,234,4.0,11.0,88,0.02,,,0.22,VWS V14.01,2013-06-19 23:30:00,
2013-06-19 17:35:00,52.7,49.0,29.75,WSW,238,3.0,9.0,87,0.02,,,0.22,VWS V14.01,2013-06-19 23:35:00,
2013-06-19 17:40:00,53.0,48.9,29.75,WSW,252,5.0,9.0,86,0.02,,,0.22,VWS V14.01,2013-06-19 23:40:00,
2013-06-19 17:45:00,52.8,48.4,29.76,WSW,245,5.0,9.0,85,0.02,,,0.22,VWS V14.01,2013-06-19 23:45:00,
2013-06-19 17:50:00,52.5,48.1,29.77,South,180,6.0,9.0,85,0.02,,,0.22,VWS V14.01,2013-06-19 23:50:00,
2013-06-19 17:55:00,52.2,48.2,29.77,SSW,192,6.0,9.0,86,0.02,,,0.22,VWS V14.01,2013-06-19 23:55:00,
2013-06-19 18:00:00,52.0,47.6,29.76,SSW,205,4.0,9.0,85,0.02,,,0.22,VWS V14.01,2013-06-20 00:00:00,
2013-06-19 18:05:00,52.1,48.0,29.76,SSW,209,5.0,6.0,86,0.01,,,0.22,VWS V14.01,2013-06-20 00:05:00,
2013-06-19 18:10:00,52.1,48.0,29.76,SSW,202,4.0,7.0,86,0.01,,,0.22,VWS V14.01,2013-06-20 00:10:00,
2013-06-19 18:15:00,52.0,48.0,29.76,SSW,202,3.0,7.0,86,0.01,,,0.22,VWS V14.01,2013-06-20 00:15:00,
2013-06-19 18:20:00,51.9,48.2,29.76,SSW,202,3.0,7.0,87,0.02,,,0.23,VWS V14.01,2013-06-20 00:20:00,
2013-06-19 18:25:00,51.7,47.3,29.76,SSW,202,3.0,7.0,85,0.02,,,0.23,VWS V14.01,2013-06-20 00:25:00,
2013-06-19 18:30:00,51.7,47.7,29.76,SSW,202,0.0,7.0,86,0.02,,,0.23,VWS V14.01,2013-06-20 00:30:00,
2013-06-19 18:35:00,51.6,47.9,29.76,SSW,202,0.0,3.0,87,0.01,,,0.23,VWS V14.01,2013-06-20 00:35:00,
2013-06-19 18:40:00,51.5,48.1,29.75,SSW,202,0.0,3.0,88,0.01,,,0.23,VWS V14.01,2013-06-20 00:40:00,
2013-06-19 18:45:00,51.5,48.1,29.74,SSW,202,0.0,3.0,88,0.01,,,0.23,VWS V14.01,2013-06-20 00:45:00,
2013-06-19 18:50:00,51.5,48.4,29.74,SSW,202,0.0,3.0,89,0.01,,,0.23,VWS V14.01,2013-06-20 00:50:00,
2013-06-19 18:55:00,51.4,48.3,29.74,SSW,202,0.0,3.0,89,0.02,,,0.24,VWS V14.01,2013-06-20 00:55:00,
2013-06-19 19:00:00,51.3,48.2,29.73,SSW,202,0.0,3.0,89,0.02,,,0.24,VWS V14.01,2013-06-20 01:00:00,
2013-06-19 19:05:00,51.0,47.9,29.74,SSW,202,2.0,2.0,89,0.02,,,0.24,VWS V14.01,2013-06-20 01:05:00,
2013-06-19 19:10:00,50.6,47.8,29.75,SSW,202,3.0,4.0,90,0.02,,,0.24,VWS V14.01,2013-06-20 01:10:00,
2013-06-19 19:15:00,50.4,47.3,29.75,SSW,202,0.0,4.0,89,0.02,,,0.24,VWS V14.01,2013-06-20 01:15:00,
2013-06-19 19:20:00,50.3,47.5,29.77,SSW,202,4.0,5.0,90,0.02,,,0.24,VWS V14.01,2013-06-20 01:20:00,
2013-06-19 19:25:00,50.2,47.4,29.77,SSW,201,2.0,5.0,90,0.02,,,0.24,VWS V14.01,2013-06-20 01:25:00,
2013-06-19 19:30:00,50.1,47.3,29.76,SSW,201,4.0,5.0,90,0.02,,,0.24,VWS V14.01,2013-06-20 01:30:00,
2013-06-19 19:35:00,50.1,47.3,29.76,SSW,201,2.0,4.0,90,0.01,,,0.24,VWS V14.01,2013-06-20 01:35:00,
2013-06-19 19:40:00,50.1,47.3,29.76,SSW,201,0.0,5.0,90,0.01,,,0.24,VWS V14.01,2013-06-20 01:40:00,
2013-06-19 19:45:00,50.3,47.5,29.76,SSW,201,0.0,5.0,90,0.01,,,0.24,VWS V14.01,2013-06-20 01:45:00,
2013-06-19 19:50:00,50.3,47.5,29.76,SSW,201,0.0,5.0,90,0.01,,,0.24,VWS V14.01,2013-06-20 01:50:00,
2013-06-19 19:55:00,50.4,47.3,29.75,SSW,201,0.0,5.0,89,0.01,,,0.24,VWS V14.01,2013-06-20 01:55:00,
2013-06-19 20:00:00,50.3,47.2,29.75,SSW,201,0.0,5.0,89,0.01,,,0.24,VWS V14.01,2013-06-20 02:00:00,
2013-06-19 20:05:00,50.4,47.3,29.75,SSW,201,0.0,1.0,89,0.00,,,0.24,VWS V14.01,2013-06-20 02:05:00,
2013-06-19 20:10:00,50.4,47.3,29.76,SSW,201,0.0,1.0,89,0.00,,,0.24,VWS V14.01,2013-06-20 02:10:00,
2013-06-19 20:15:00,50.5,47.4,29.76,SSW,201,0.0,1.0,89,0.00,,,0.24,VWS V14.01,2013-06-20 02:15:00,
2013-06-19 20:20:00,50.5,47.4,29.75,SSW,201,0.0,1.0,89,0.00,,,0.24,VWS V14.01,2013-06-20 02:20:00,
2013-06-19 20:25:00,50.5,47.4,29.75,SSW,201,3.0,4.0,89,0.00,,,0.24,VWS V14.01,2013-06-20 02:25:00,
2013-06-19 20:30:00,50.5,47.4,29.76,SSW,201,0.0,4.0,89,0.00,,,0.24,VWS V14.01,2013-06-20 02:30:00,
2013-06-19 20:35:00,50.6,47.5,29.77,SSW,201,0.0,3.0,89,0.00,,,0.24,VWS V14.01,2013-06-20 02:35:00,
2013-06-19 20:40:00,50.6,47.5,29.77,SSW,201,0.0,3.0,89,0.00,,,0.24,VWS V14.01,2013-06-20 02:40:00,
2013-06-19 20:45:00,50.6,47.5,29.77,SSW,201,0.0,3.0,89,0.00,,,0.24,VWS V14.01,2013-06-20 02:45:00,
2013-06-19 20:50:00,50.6,47.2,29.77,SSW,201,0.0,3.0,88,0.00,,,0.24,VWS V14.01,2013-06-20 02:50:00,
2013-06-19 20:55:00,50.6,47.2,29.76,SSW,201,0.0,3.0,88,0.00,,,0.24,VWS V14.01,2013-06-20 02:55:00,
2013-06-19 21:00:00,50.5,47.1,29.75,SSW,201,0.0,3.0,88,0.00,,,0.24,VWS V14.01,2013-06-20 03:00:00,
2013-06-19 21:05:00,50.3,46.9,29.75,SSW,201,4.0,4.0,88,0.01,,,0.25,VWS V14.01,2013-06-20 03:05:00,
2013-06-19 21:10:00,50.1,46.7,29.74,SSW,202,3.0,5.0,88,0.02,,,0.26,VWS V14.01,2013-06-20 03:10:00,
2013-06-19 21:15:00,49.9,46.8,29.73,SW,220,4.0,6.0,89,0.02,,,0.26,VWS V14.01,2013-06-20 03:15:00,
2013-06-19 21:20:00,49.9,46.5,29.73,WSW,244,5.0,6.0,88,0.02,,,0.26,VWS V14.01,2013-06-20 03:20:00,
2013-06-19 21:25:00,49.9,46.5,29.73,SW,218,7.0,8.0,88,0.02,,,0.26,VWS V14.01,2013-06-20 03:25:00,
2013-06-19 21:30:00,50.0,46.9,29.73,SSW,201,7.0,10.0,89,0.02,,,0.26,VWS V14.01,2013-06-20 03:30:00,
2013-06-19 21:35:00,50.1,47.0,29.72,SW,225,8.0,8.0,89,0.02,,,0.26,VWS V14.01,2013-06-20 03:35:00,
2013-06-19 21:40:00,50.1,47.3,29.72,SW,224,4.0,9.0,90,0.02,,,0.26,VWS V14.01,2013-06-20 03:40:00,
2013-06-19 21:45:00,50.1,47.3,29.71,SW,227,6.0,9.0,90,0.02,,,0.26,VWS V14.01,2013-06-20 03:45:00,
2013-06-19 21:50:00,50.1,47.3,29.72,WSW,242,6.0,10.0,90,0.02,,,0.26,VWS V14.01,2013-06-20 03:50:00,
2013-06-19 21:55:00,50.2,47.4,29.73,WSW,244,4.0,11.0,90,0.03,,,0.27,VWS V14.01,2013-06-20 03:55:00,
2013-06-19 22:00:00,50.3,47.5,29.73,SW,236,7.0,11.0,90,0.03,,,0.27,VWS V14.01,2013-06-20 04:00:00,
2013-06-19 22:01:00,50.3,47.5,29.73,WSW,254,10.0,11.0,90,0.03,,,0.27,VWS V14.01,2013-06-20 04:01:00,
2013-06-19 22:06:00,50.2,47.1,29.73,WSW,251,12.0,12.0,89,0.03,,,0.27,VWS V14.01,2013-06-20 04:06:00,
2013-06-19 22:11:00,49.9,46.5,29.73,WSW,252,6.0,12.0,88,0.03,,,0.27,VWS V14.01,2013-06-20 04:11:00,
2013-06-19 22:16:00,49.7,46.6,29.73,WSW,251,14.0,14.0,89,0.03,,,0.27,VWS V14.01,2013-06-20 04:16:00,
2013-06-19 22:21:00,49.6,46.2,29.73,WSW,257,12.0,14.0,88,0.03,,,0.27,VWS V14.01,2013-06-20 04:21:00,
2013-06-19 22:26:00,49.5,46.1,29.72,WSW,254,5.0,15.0,88,0.03,,,0.27,VWS V14.01,2013-06-20 04:26:00,
2013-06-19 22:31:00,49.5,46.1,29.72,WSW,238,8.0,15.0,88,0.03,,,0.27,VWS V14.01,2013-06-20 04:31:00,
2013-06-19 22:36:00,49.5,46.1,29.73,SW,236,10.0,12.0,88,0.01,,,0.27,VPLive 1.2.5.27,2013-06-20 04:36:00,
2013-06-19 22:41:00,49.5,46.1,29.73,SW,229,9.0,14.0,88,0.01,,,0.27,VWS V14.01,2013-06-20 04:41:00,
2013-06-19 22:46:00,49.7,46.0,29.73,SSW,203,8.0,14.0,87,0.01,,,0.27,VWS V14.01,2013-06-20 04:46:00,
2013-06-19 22:51:00,49.6,45.9,29.73,SW,232,6.0,14.0,87,0.01,,,0.27,VWS V14.01,2013-06-20 04:51:00,
2013-06-19 22:56:00,49.4,46.0,29.73,SW,220,4.0,14.0,88,0.01,,,0.27,VWS V14.01,2013-06-20 04:56:00,
2013-06-19 23:01:00,49.4,45.7,29.72,SW,222,10.0,14.0,87,0.01,,,0.27,VWS V14.01,2013-06-20 05:01:00,
2013-06-19 23:06:00,49.5,45.8,29.73,SSW,213,9.0,14.0,87,0.00,,,0.27,VWS V14.01,2013-06-20 05:06:00,
2013-06-19 23:11:00,49.3,45.9,29.73,SW,228,7.0,14.0,88,0.00,,,0.27,VWS V14.01,2013-06-20 05:11:00,
2013-06-19 23:16:00,49.2,45.5,29.74,SSW,213,6.0,14.0,87,0.00,,,0.27,VWS V14.01,2013-06-20 05:16:00,
2013-06-19 23:21:00,49.2,45.8,29.74,SSW,213,8.0,14.0,88,0.00,,,0.27,VWS V14.01,2013-06-20 05:21:00,
2013-06-19 23:26:00,49.2,45.8,29.74,SSW,204,6.0,14.0,88,0.00,,,0.27,VWS V14.01,2013-06-20 05:26:00,
2013-06-19 23:31:00,49.2,45.5,29.74,SSW,209,8.0,14.0,87,0.00,,,0.27,VWS V14.01,2013-06-20 05:31:00,
2013-06-19 23:36:00,49.0,45.6,29.75,South,191,8.0,9.0,88,0.00,,,0.27,VWS V14.01,2013-06-20 05:36:00,
2013-06-19 23:41:00,49.0,45.6,29.74,SSW,208,4.0,9.0,88,0.01,,,0.28,VWS V14.01,2013-06-20 05:41:00,
2013-06-19 23:46:00,48.8,45.7,29.75,SW,220,8.0,9.0,89,0.01,,,0.28,VWS V14.01,2013-06-20 05:46:00,
2013-06-19 23:51:00,48.7,45.6,29.74,SW,230,6.0,9.0,89,0.01,,,0.28,VWS V14.01,2013-06-20 05:51:00,
2013-06-19 23:56:00,48.9,45.5,29.74,SW,214,8.0,12.0,88,0.01,,,0.28,VWS V14.01,2013-06-20 05:56:00,